Overview Statistics Trail Chart Weather Telemetry Raw packets
 

This is the latest recevied weather packets stored in our database for station/object KSL2-WX. If no packets are shown the sender has not sent any weather packets the latest 10 day(s).

<< 1 2 3 4 5 6 7 >>
Time Temp. Humidity Pressure Rain* Wind** Luminosity Snow
1788430640 25° C 45% 1015 hPa - - - -
1788427039 25° C 45% 1015 hPa - - - -
1788423439 23.89° C 47% 1015.6 hPa - - - -
1788419839 23.33° C 51% 1016.6 hPa - - - -
1788416293 21.67° C 53% 1017.1 hPa - - - -
1788412639 19.44° C 62% 1017.7 hPa - - - -
1788409039 15° C 81% 1018.4 hPa - - - -
1788405439 12.22° C 86% 1018.7 hPa - - - -
1788401839 12.22° C 85% 1018.7 hPa - - - -
1788398239 12.22° C 86% 1018.7 hPa - - - -
1788380239 13.89° C 82% 1018.8 hPa - - - -
1788376800 15.56° C 77% 1018.6 hPa - - - -
1788373148 16.11° C 76% 1018.9 hPa - - - -
1788369440 17.22° C 70% 1018.7 hPa - - - -
1788365839 18.89° C 63% 1017.9 hPa - - - -
1788362318 21.67° C 52% 1017.2 hPa - - - -
1788358639 22.78° C 47% 1017 hPa - - - -
1788355039 23.33° C 47% 1017 hPa - - - -
1788351513 23.33° C 46% 1017.2 hPa - - - -
1788347839 23.89° C 46% 1016.8 hPa - - - -
1788344239 24.44° C 47% 1017 hPa - - - -
1788340639 23.89° C 46% 1016.9 hPa - - - -
1788337040 23.33° C 47% 1017 hPa - - - -
1788333440 22.22° C 51% 1017.5 hPa - - - -
1788329841 21.11° C 52% 1018.4 hPa - - - -

* Rain since midnight (hover to see other rain measurements)
** Current wind speed in m/s (hover to see current wind gust speed)